User: anonymous   Login
Location: Goheenville
(40.9070°N, 79.3720°W)
Time: 19:12:52
(UTC-05:00)
Language:

Cosmos 1727 Rocket - Orbit

View from above orbital plane
View from above orbital plane
View from above satellite
View from above satellite

Ground track
Ground track

The orbit data is extracted from the following two-line orbital elements,

1 16511U 86008B   14331.75294803  .00000061  00000-0  47683-4 0  6251
2 16511 082.9445 191.3863 0024279 010.5006 057.3288 13.75776466448062
Epoch (UTC): 27 November 2014 18:04:14
Eccentricity: 0.0024279
inclination: 82.9445°
perigee height: 961 km
apogee height: 997 km
right ascension of ascending node: 191.3863°
argument of perigee: 10.5006°
revolutions per day: 13.75776466
mean anomaly at epoch: 57.3288°
orbit number at epoch: 44806

The dashed part of the orbit path shows where the satellite is in the earth's shadow,  

DLR